This demonstration page uses our WeatherBlox Daily Observations layout. Learn more.

Left ArrowRight Arrow

Hourly Observations for September 26, 2021

Temp ( °F °C ) Dew Point ( °F °C ) Humidity (%) Winds ( mph kmh ) Pressure ( in mb ) Visibility ( mi km ) Precip ( " mm )
12:54 am 00:54 Clear 65 18.3 45 7.2 49 49 SSW 10 17 29.90 1013 10 16 N/A
1:54 am 01:54 Clear 63 17.2 45 7.2 52 52 S 10 17 29.89 1012 10 16 N/A
2:54 am 02:54 Clear 60 15.6 46 7.8 60 60 S 10 17 29.88 1012 10 16 N/A
3:54 am 03:54 Clear 59 15 45 7.2 60 60 S 7 11 29.86 1011 10 16 N/A
4:54 am 04:54 Clear 57 13.9 46 7.8 67 67 S 10 17 29.84 1011 10 16 N/A
5:54 am 05:54 Clear 54 12.2 45 7.2 72 72 S 7 11 29.83 1010 10 16 N/A
6:54 am 06:54 Clear 57 13.9 46 7.8 67 67 SSE 5 7 29.83 1010 10 16 N/A
7:54 am 07:54 Sunny 57 13.9 47 8.3 69 69 SSE 5 7 29.83 1010 10 16 N/A
8:54 am 08:54 Sunny 62 16.7 49 9.4 62 62 S 6 9 29.82 1010 10 16 N/A
9:54 am 09:54 Sunny 70 21.1 50 10 49 49 S 10 17 29.82 1010 10 16 N/A
10:54 am 10:54 Sunny 75 23.9 49 9.4 40 40 SW 9 15 29.80 1009 10 16 N/A
11:54 am 11:54 Sunny 78 25.6 51 10.6 39 39 S 10 17 29.78 1008 10 16 N/A
12:54 pm 12:54 Sunny 82 27.8 51 10.6 34 34 SSW 12 19 29.75 1008 10 16 N/A
1:54 pm 13:54 Sunny 86 30 51 10.6 30 30 S 8 13 29.74 1007 10 16 N/A
2:54 pm 14:54 Sunny 89 31.7 51 10.6 27 27 SW 10 17 29.72 1006 10 16 N/A
3:54 pm 15:54 Sunny 91 32.8 52 11.1 26 26 SSW 15 24 29.70 1006 10 16 N/A
4:54 pm 16:54 Sunny 93 33.9 51 10.6 24 24 SW 10 17 29.68 1005 10 16 N/A
5:54 pm 17:54 Sunny 92 33.3 52 11.1 26 26 SSW 9 15 29.67 1005 10 16 N/A
6:54 pm 18:54 Sunny 81 27.2 56 13.3 42 42 S 6 9 29.68 1005 10 16 N/A
7:54 pm 19:54 Clear 71 21.7 55 12.8 57 57 SSE 8 13 29.69 1005 10 16 N/A
8:54 pm 20:54 Clear 71 21.7 53 11.7 53 53 NNW 5 7 29.70 1006 10 16 N/A
9:54 pm 21:54 Clear 67 19.4 54 12.2 63 63 SSE 5 7 29.70 1006 10 16 N/A
10:54 pm 22:54 Clear 66 18.9 53 11.7 63 63 SSE 7 11 29.72 1006 10 16 N/A
11:54 pm 23:54 Clear 61 16.1 50 10 67 67 S 9 15 29.72 1007 10 16 N/A

Powered by AerisWeather